OpenBCM V2.0.3 (Linux)

Packet Radio Mailbox

IZ3LSV

[San Dona' di P. JN]

 Login: GUEST





  
I0OJJ  > AMSAT    24.06.26 07:10l 333 Lines 15661 Bytes #999 (0) @ WW
BID : 2AR_IR0EQ
Read: GUEST
Subj: 2Line Orbital Elements
Path: IZ3LSV<ED1ZAC<LU4ECL<LU9DCE<VE3CGR<VE3TOK<IR0AAB<I0OJJ<IR0EQ
Sent: 260615/0027z @:IR0EQ.ITA.EU [Rome] $:2AR_IR0EQ

>From i0ojj%ir0eq.ita.eu@i0ojj.ampr.org Mon Jun 15 02:30:00 2026
Received: from i0ojj.ampr.org by i0ojj.ampr.org (JNOS2.0q.1) with SMTP
	id AA17062666 ; Mon, 15 Jun 2026 02:30:00 +0200
Message-Id: <2AR_IR0EQ@i0ojj.bbs>
>From: i0ojj@ir0eq.ita.eu
X-JNOS-User-Port: Telnet   (i0ojj @ 44.27.18.9)  ->   Sending message

>From i0ojj@rgate.ampr.org Mon Jun 15 02:27:24 2026
Received: from rgate.ampr.org by rgate.ampr.org (JNOS2.0q.1) with SMTP
	id AA2979 ; Mon, 15 Jun 2026 02:27:24 +0200
Received: by rgate.ampr.org with SMTP
	id AA2976 ; Mon, 15 Jun 2026 02:26:53 +0200
Message-Id: <2977@rgate.ampr.org>
>From: i0ojj@rgate.ampr.org

SB KEPS @ AMSAT  $ORB26166.1
2Line Orbital Elements 26166.AMSAT

QST de W1STR

AMSAT Orbital Elements for Amateur Satellites in TLE Format
>From Orbital Analysis Office
New England Sci-Tech STEM Education Center
Natick MA June 15, 2026
To all radio amateurs


These element sets describe the orbits of various satellites 
in use by the amateur radio community. For details see:
www.amsat.org/keplerian-elements-formats/

A daily update of element sets is available at:
www.amsat.org/tle/daily-bulletin.txt
or without bulletin text:
www.amsat.org/tle/dailytle.txt


AO-07
1 07530U 74089B   26165.77406759 -.00000032  00000-0  88439-4 0  9990
2 07530 101.9901 178.9955 0012544 134.5939  39.7265 12.53698076360213
UO-11
1 14781U 84021B   26165.87216319  .00001088  00000-0  11636-3 0  9990
2 14781  97.8056 131.4727 0007417 180.3087 179.8127 14.90778203256783
LO-19
1 20442U 90005G   26165.53075125  .00000104  00000-0  53972-4 0  9999
2 20442  98.8851 187.2631 0010968 209.2439 150.8132 14.34122471902015
AO-27
1 22825U 93061C   26165.76231133  .00000084  00000-0  48802-4 0  9992
2 22825  98.6881 233.1767 0009518 105.9918 254.2314 14.30941647706650
FO-29
1 24278U 96046B   26165.79734203  .00000017  00000-0  49334-4 0  9998
2 24278  98.5241  14.9969 0350875 102.6170 261.4438 13.53274198472843
GO-32
1 25397U 98043D   26165.74637066  .00000039  00000-0  36985-4 0  9996
2 25397  99.0067 158.4434 0000920 168.4150 191.7050 14.24427952450983
ISS
1 25544U 98067A   26165.80282117  .00008449  00000-0  16005-3 0  9999
2 25544  51.6336 311.8940 0004856 186.3522 173.7405 15.49231655571384
NO-44
1 26931U 01043C   26165.64488043  .00000096  00000-0  66722-4 0  9998
2 26931  67.0507 250.8474 0006070 264.5795  95.4615 14.31955289290085
SO-50
1 27607U 02058C   26165.32313440  .00000923  00000-0  12619-3 0  9993
2 27607  64.5509 137.8468 0075334 263.0043  96.2490 14.83041320264031
CO-55
1 27844U 03031E   26165.57849404  .00000250  00000-0  12698-3 0  9999
2 27844  98.6736 174.1701 0009356 185.5498 174.5579 14.24334256191306
RS-22
1 27939U 03042A   26165.84735670  .00001356  00000-0  21705-3 0  9992
2 27939  98.3465 350.1404 0009949 278.2594 206.6264 14.73465637215204
CO-65
1 32785U 08021C   26165.86229626  .00004321  00000-0  27403-3 0  9996
2 32785  97.8270 147.2324 0010068  46.4137 313.7926 15.09433867984843
CO-66
1 32791U 08021J   26165.72000341  .00016933  00000-0  53861-3 0  9998
2 32791  97.7509 163.4997 0001425  12.3890 347.7385 15.32677924986911
RS-30
1 32953U 08025A   26165.84507743 -.00000006  00000-0 -11571-3 0  9991
2 32953  82.5042 356.8980 0018945 319.1714  40.7946 12.43179134819404
SRMSAT
1 37841U 11058D   26165.48601053  .00000355  00000-0  48806-4 0  9998
2 37841  19.9719  75.8168 0011843 173.9008   0.9019 14.11575039757432
ZACUBE-1
1 39417U 13066B   26165.87437169  .00003043  00000-0  23821-3 0  9994
2 39417  97.8082 128.1989 0040555 255.7750 103.8967 15.01177435680381
Delfi-N3xt
1 39428U 13066N   26165.83543211  .00004540  00000-0  39834-3 0  9992
2 39428  97.8342  86.1495 0073532 213.6544 145.9996 14.95059905674275
GOMX-1
1 39430U 13066Q   26165.80269187  .00002648  00000-0  39989-3 0  9997
2 39430  97.6481   6.4166 0130187  85.1182 276.4875 14.69455312669565
LO-74
1 39440U 13066AA  26165.85263433  .00004175  00000-0  38675-3 0  9999
2 39440  97.8904 114.8208 0058552  36.5594 323.9600 14.93744304676641
AO-73
1 39444U 13066AE  26165.86898016  .00006690  00000-0  41591-3 0  9990
2 39444  97.8271 137.2664 0035429 209.1760 150.7489 15.09465367679313
DTUSAT-2
1 40030U 14033W   26165.72809294  .00006455  00000-0  34956-3 0  9999
2 40030  98.0857 163.2989 0006430 235.1790 124.8836 15.14991239652317
LILACSAT-2
1 40908U 15049K   26165.88577484  .00016572  00000-0  28296-3 0  9992
2 40908  97.4647 202.6397 0005394 256.1221 103.9431 15.51379523595392
Horyu-4
1 41340U 16012D   26165.49642719  .00399139  56274-4  10359-2 0  9996
2 41340  30.9847  98.7619 0004716 253.7574 106.2569 15.93820636570381
Lapan A3
1 41603U 16040E   26165.84144530  .00003170  00000-0  10136-3 0  9999
2 41603  97.1485 162.0642 0011175  33.6059 326.5890 15.33091095554454
CAS-2T
1 41847U 16066G   26165.47017350  .00001606  00000-0  23210-3 0  9994
2 41847  98.3821 241.2375 0342714 137.6929 225.1249 14.44686169504406
TechnoSat
1 42829U 17042E   26165.72268120  .00003860  00000-0  27556-3 0  9992
2 42829  97.4273 323.4740 0018822 101.9934 258.3404 15.04945225486337
AO-91
1 43017U 17073E   26165.89282045  .00008137  00000-0  35586-3 0  9990
2 43017  97.4709  33.1549 0149905 337.2448  22.2183 15.12688328465048
S-Net D
1 43186U 18014G   26165.62491194  .00005138  00000-0  26580-3 0  9993
2 43186  97.5371  70.4319 0009168  38.0119 322.1759 15.16651784458376
S-Net B
1 43187U 18014H   26165.63631422  .00004632  00000-0  24019-3 0  9998
2 43187  97.5378  70.4300 0009687  33.4028 326.7814 15.16621899458374
S-Net A
1 43188U 18014J   26165.62380336  .00005235  00000-0  27069-3 0  9991
2 43188  97.5387  70.6254 0009569  34.0888 326.0957 15.16659834458376
S-Net C
1 43189U 18014K   26165.64017720  .00004528  00000-0  23488-3 0  9993
2 43189  97.5402  70.7161 0010738  26.1004 334.0768 15.16613951456923
Ten-Koh
1 43677U 18084G   26165.79347840  .00002012  00000-0  15456-3 0  9999
2 43677  98.0774 358.0563 0011348 121.1232 239.1107 15.02935455415803
PO-101
1 43678U 18084H   26165.83579470  .00002835  00000-0  23024-3 0  9994
2 43678  98.1177   1.9424 0012338 177.7083 182.4199 15.00444092415860
QO-100
1 43700U 18090A   26165.83636058  .00000000  00000-0  00000+0 0  9990
2 43700   0.0256   7.5484 0001586 117.4904 104.9712  1.00269664 27651
MinXSS-2
1 43758U 18099A   26165.76291329  .00032381  00000-0  64643-3 0  9996
2 43758  97.4546 241.9761 0006481 265.2726  94.7783 15.46755890413751
AO-95
1 43770U 18099N   26165.65258519  .00010710  00000-0  41050-3 0  9991
2 43770  97.4388 225.9077 0008247   7.1912 352.9444 15.26665093412837
SNUSat 2
1 43782U 18099AA  26165.11141786  .00008628  00000-0  38269-3 0  9995
2 43782  97.4062 218.5423 0008763 311.0758  48.9720 15.21797709412564
SnugLite
1 43784U 18099AC  26165.12959470  .00011763  00000-0  44475-3 0  9995
2 43784  97.3877 219.4395 0001292 317.8162  42.2978 15.27120086412858
ITASat 1
1 43786U 18099AE  26165.71612205  .00005811  00000-0  28016-3 0  9994
2 43786  97.4031 217.2768 0012365   9.0773 351.0683 15.19030078412535
EAGLET 1
1 43790U 18099AJ  26165.60568616  .00004020  00000-0  23157-3 0  9995
2 43790  97.4235 215.3426 0010934   3.5694 356.5613 15.12923736411949
ESEO
1 43792U 18099AL  26165.85211344  .00002077  00000-0  15338-3 0  9999
2 43792  97.3971 203.3400 0011573 347.7740  12.3204 15.04239575411452
JO-97
1 43803U 18099AX  26165.15960116  .00016674  00000-0  51563-3 0  9991
2 43803  97.4134 227.9830 0004214 277.2169  82.8595 15.33568110413169
Suomi 100
1 43804U 18099AY  26165.65291372  .00011316  00000-0  41181-3 0  9991
2 43804  97.4195 226.0553 0008367 290.0170  70.0169 15.28364085413038
ISAT
1 43879U 18111D   26165.79659588  .00085076  00000-0  86450-3 0  9992
2 43879  97.5888 100.8344 0000770 103.7373 256.3971 15.64912377410795
UWE-4
1 43880U 18111E   26165.30258735  .00032250  00000-0  66149-3 0  9999
2 43880  97.5859  93.5612 0006031 355.2213   4.8977 15.45969448410336
Sparrow
1 43881U 18111F   26165.39748497  .00147075  00000-0  10338-2 0  9998
2 43881  97.6125 105.9738 0004384 109.0587 251.1152 15.73694682410933
Prox-1
1 44339U 19036A   26165.24564168  .00013018  00000-0  12702-2 0  9995
2 44339  23.9929 133.9015 0005534   2.9449 357.1083 14.90548290373031
Taurus 1
1 44530U 19059C   26165.79580755  .00004870  00000-0  78277-3 0  9999
2 44530  98.6405 330.4752 0007561 324.7049  35.3655 14.72074466358297
TO-108
1 44881U 19093C   26165.82343443  .00001188  00000-0  14006-3 0  9990
2 44881  97.7537 238.1129 0015070  94.1051 266.1887 14.86516706351061
RS-44
1 44909U 19096E   26165.73793111  .00000015  00000-0  11257-4 0  9999
2 44909  82.5218 341.3328 0218072 149.8762 211.5093 12.79748816302037
SALSAT
1 46495U 20068K   26165.52910375  .00006973  00000-0  24454-3 0  9993
2 46495  97.8843 168.4319 0008235 319.4661  40.5964 15.29765944314951
CSS (TIANHE-1)
1 48274U 21035A   26165.80144780  .00021074  00000-0  24953-3 0  9998
2 48274  41.4695 336.5204 0007660  57.6860 302.4720 15.60716016292790
CUTE
1 49263U 21088D   26165.54895217  .00146915  10199-4  43652-3 0  9997
2 49263  97.4170 264.5907 0007696 232.4447 127.6129 15.92466161262134
TeikyoSat 4
1 49396U 21102B   26165.80054551  .00001478  00000-0  95921-4 0  9995
2 49396  97.3671 195.3768 0010621 306.1738  53.8508 15.09501228252363
Z-Sat
1 49399U 21102E   26165.89123682  .00004548  00000-0  22471-3 0  9999
2 49399  97.3326 201.2833 0014857 253.7289 106.2311 15.18251286253098
KOSEN 1
1 49402U 21102H   26165.84781669  .00007000  00000-0  26779-3 0  9995
2 49402  97.3183 208.0502 0012949 209.0468 151.0052 15.26807699253662
HO-113
1 50466U 21131B   26165.83319605  .00000507  00000-0  17008-3 0  9995
2 50466  98.4983 258.2354 0005348 101.8886 258.2903 14.41355659234770
